Voltar ao catálogo

STARLINK-34381

AtivoComunicaçõesVLEO
NORAD 64282·PAYLOAD·🇺🇸 United States

Lançado Jun 4, 2025 de Vandenberg Space Force Base

Loading…

Próximas Passagens (próximas 24 horas)

TLE

AtualizadoSource: CelesTrak SupGP

Época: Sep 14, 2026, 21:29 UTC

1 64282C 25120AC  26257.89562500  .00000059  00000+0  17571-5 0  2575
2 64282  53.1573 316.2413 0001208  91.3945  33.9287 15.34375265    14

Acompanhe STARLINK-34381 em tempo real com AllMySat

Download on the App Store